This is the latest recevied weather packets stored in our database for station/object KV4OP. If no packets are shown the sender has not sent any weather packets the latest 10 day(s).
| Time | Temp. | Humidity | Pressure | Rain* | Wind** | Luminosity | Snow |
|---|---|---|---|---|---|---|---|
| 1788021045 | 33.33° C | 57% | 1019.1 hPa | 0 mm | - | - | - |
| 1788020745 | 32.78° C | 60% | 1019.2 hPa | 0 mm | - | - | - |
| 1788020454 | 33.33° C | 58% | 1019.3 hPa | 0 mm | - | - | - |
| 1788020145 | 32.78° C | 60% | 1019.2 hPa | 0 mm | - | - | - |
| 1788019845 | 32.78° C | 59% | 1019.2 hPa | 0 mm | - | - | - |
| 1788019546 | 33.33° C | 61% | 1019.3 hPa | 0 mm | - | - | - |
| 1788019255 | 32.78° C | 62% | 1019.4 hPa | 0 mm | - | - | - |
| 1788018945 | 32.22° C | 62% | 1019.5 hPa | 0 mm | - | - | - |
| 1788018645 | 32.22° C | 59% | 1019.5 hPa | 0 mm | - | - | - |
| 1788018346 | 32.22° C | 59% | 1019.4 hPa | 0 mm | - | - | - |
| 1788018054 | 31.67° C | 63% | 1019.4 hPa | 0 mm | - | - | - |
| 1788017745 | 31.67° C | 61% | 1019.4 hPa | 0 mm | - | - | - |
| 1788017446 | 31.67° C | 62% | 1019.6 hPa | 0 mm | - | - | - |
| 1788017146 | 31.67° C | 62% | 1019.7 hPa | 0 mm | - | - | - |
| 1788016855 | 31.67° C | 65% | 1019.8 hPa | 0 mm | - | - | - |
| 1788016545 | 31.11° C | 64% | 1019.8 hPa | 0 mm | - | - | - |
| 1788016246 | 31.11° C | 63% | 1019.8 hPa | 0 mm | - | - | - |
| 1788015945 | 31.11° C | 62% | 1019.8 hPa | 0 mm | - | - | - |
| 1788015654 | 31.11° C | 63% | 1019.7 hPa | 0 mm | - | - | - |
| 1788015346 | 31.11° C | 62% | 1019.6 hPa | 0 mm | - | - | - |
| 1788015046 | 31.11° C | 65% | 1019.6 hPa | 0 mm | - | - | - |
| 1788014753 | 31.11° C | 65% | 1019.4 hPa | 0 mm | - | - | - |
| 1788014454 | 31.11° C | 65% | 1019.6 hPa | 0 mm | - | - | - |
| 1788014145 | 30.56° C | 64% | 1019.5 hPa | 0 mm | - | - | - |
| 1788013846 | 31.11° C | 65% | 1019.6 hPa | 0 mm | - | - | - |
* Rain latest hour (hover to see other rain measurements)
** Current wind speed in m/s (hover to see current wind gust speed)